FALCON 9 DEB (52504 NORAD) Tracking and Keplerian Element Data
This shows tracking and keplerian element data for the satellite.
Feedback or suggestion? Click here.
Element | Value |
Catalog | 52504 |
Name | FALCON 9 DEB |
Epoch Orbit | 648 |
Epoch Day | 166.98173731 |
Epoch Year | 2022 |
RAAN | 59.3589 |
Inclination | 53.2037 |
Eccentricity | 0.0003507 |
Argument of Perigee | 12.7254 |
Mean Anonmoly | 347.3869 |
Mean Motion | 16.08219272 |
Decay Rate | 0.00637087 |
L1 | 1 52504U 22049BF 22166.98173731 .00637087 21833-3 74188-3 0 9991 |
L2 | 2 52504 53.2037 59.3589 0003507 12.7254 347.3869 16.08219272 6489 |
Live tracking and technical data element details for FALCON 9 DEB (NORAD 52504). FALCON 9 DEB can be tracked NOW for your location showing map with azimuth and elevation plus other details from your city location.
Track the satellite on the map from your city or location and see movement details for azimuth, elevation, latitude, longitude, range, height, and movement on the map or in text.
IsCatalogInMostPopularTable: catalog: 52504, numindb: 1
Update: records affected: 1
GetName: 52504 FALCON 9 DEB
Hit Count: updated at: Sat, 25 Jun 2022 04:03:21 GMT